Regional Weather Roundup
Issued by NWS

Home | Current Version | Previous Version | Text Only | Print | Product List | Glossary Off
Versions: 1 2 3 4 5 6 7 8 9 10 11 12 13 14 15 16 17 18 19 20 21 22 23 24 25 26 27 28 29 30 31 32 33 34 35 36 37 38 39 40 41 42 43 44 45 46 47 48 49 50

000
ASUS43 KBIS 192210
RWRND

NORTH DAKOTA REGIONAL WEATHER ROUNDUP
NATIONAL WEATHER SERVICE BISMARCK ND
500 PM CDT SAT AUG 19 2017

NOTE: "FAIR" INDICATES FEW OR NO CLOUDS BELOW 12,000 FEET WITH NO
SIGNIFICANT WEATHER AND/OR OBSTRUCTIONS TO VISIBILITY.


NDZ001>003-009>011-017-192300-
NORTHWEST NORTH DAKOTA

CITY           SKY/WX    TMP DP  RH WIND       PRES   REMARKS
WILLISTON      SUNNY     84  49  29 NW23G32   29.79S
MINOT          SUNNY     90  45  21 W20G25    29.67S
MINOT AFB      SUNNY     90  49  23 W21       29.65S
$$

NDZ018>021-031>035-040>046-192300-
SOUTHWEST NORTH DAKOTA

CITY           SKY/WX    TMP DP  RH WIND       PRES   REMARKS
BISMARCK       CLOUDY    84  63  49 SW6       29.74S
DICKINSON      SUNNY     85  41  21 NW21G28   29.80R
GARRISON         N/A     87  50  27 NW18G26   29.72S
HETTINGER ARPT CLOUDY    83  46  27 NW13      29.85R
$$

NDZ004>008-012>016-024-026-027-054-192300-
NORTHEAST NORTH DAKOTA

CITY           SKY/WX    TMP DP  RH WIND       PRES   REMARKS
GRAND FORKS    MOSUNNY   86  60  41 S21G28    29.72F
GRND FRKS AFB  SUNNY     83  58  41 S17       29.72F
DEVILS LAKE    MOSUNNY   82  62  50 S16       29.71S
$$

NDZ022-023-025-028>030-036>039-047>053-192300-
SOUTHEAST NORTH DAKOTA

CITY           SKY/WX    TMP DP  RH WIND       PRES   REMARKS
FARGO          SUNNY     81  61  50 S15G22    29.78F
JAMESTOWN      MOSUNNY   78  62  57 S16       29.75F
$$





USA.gov is the U.S. government's official web portal to all federal, state and local government web resources and services.